AW623 Weather Reports


Display with metric or nautical units.
time (UTC)temp
F
wind
direction
speed
MPH
gust
MPH
rain 1hr
in
rain 24hr
in
rain mn
in
humidity
%
barometer
mb
20260501223123 70 324 10.0 12.0 0.00 0.00 0.00 28 983.1
20260501222123 73 312 8.0 12.0 0.00 0.00 0.00 25 983.0
20260501221126 73 34 5.0 8.0 0.00 0.00 0.00 25 983.0
20260501220144 72 35 6.0 8.0 0.00 0.00 0.00 25 983.2
20260501215144 70 317 8.0 12.0 0.00 0.00 0.00 27 983.2
20260501214125 73 291 8.0 13.0 0.00 0.00 0.00 27 983.5
20260501213124 72 288 7.0 10.0 0.00 0.00 0.00 26 983.7
20260501212123 70 297 8.0 13.0 0.00 0.00 0.00 29 983.9
20260501211126 72 344 8.0 15.0 0.00 0.00 0.00 25 983.9
20260501210123 70 308 13.0 18.0 0.00 0.00 0.00 27 984.2
20260501205123 72 299 8.0 13.0 0.00 0.00 0.00 28 984.5
20260501204126 68 306 9.0 15.0 0.00 0.00 0.00 29 984.7
20260501203124 71 311 7.0 11.0 0.00 0.00 0.00 26 985.0
20260501202123 69 306 3.0 6.0 0.00 0.00 0.00 28 985.1
20260501201147 68 308 9.0 15.0 0.00 0.00 0.00 28 985.1
20260501200123 67 325 11.0 16.0 0.00 0.00 0.00 29 985.2
20260501195123 69 295 5.0 11.0 0.00 0.00 0.00 27 985.5
20260501194126 68 289 10.0 12.0 0.00 0.00 0.00 28 985.5
20260501193123 73 293 7.0 11.0 0.00 0.00 0.00 28 985.6
20260501192144 71 293 8.0 13.0 0.00 0.00 0.00 25 985.6
20260501191123 72 299 7.0 16.0 0.00 0.00 0.00 25 985.6
20260501190126 71 308 8.0 12.0 0.00 0.00 0.00 25 985.7
20260501185144 70 28 8.0 12.0 0.00 0.00 0.00 25 985.7
20260501184123 71 346 8.0 14.0 0.00 0.00 0.00 25 985.7
20260501183125 69 293 7.0 12.0 0.00 0.00 0.00 25 985.8
20260501182123 69 311 10.0 17.0 0.00 0.00 0.00 25 985.8
20260501181123 70 290 7.0 13.0 0.00 0.00 0.00 25 985.8
20260501180126 70 268 5.0 11.0 0.00 0.00 0.00 28 985.8
20260501175144 71 28 3.0 5.0 0.00 0.00 0.00 24 985.9
20260501174123 69 94 6.0 8.0 0.00 0.00 0.00 26 986.0
20260501173126 70 267 2.0 5.0 0.00 0.00 0.00 25 986.1
20260501172123 69 299 5.0 9.0 0.00 0.00 0.00 25 986.2
20260501171144 70 309 4.0 9.0 0.00 0.00 0.00 25 986.2
20260501170126 67 155 4.0 6.0 0.00 0.00 0.00 29 986.2
20260501165123 64 220 5.0 8.0 0.00 0.00 0.00 32 986.2
20260501164123 66 194 5.0 9.0 0.00 0.00 0.00 35 986.2
20260501163125 63 224 5.0 10.0 0.00 0.00 0.00 34 986.4
20260501162144 63 238 4.0 8.0 0.00 0.00 0.00 35 986.2
20260501161123 65 192 5.0 7.0 0.00 0.00 0.00 38 986.2
20260501160146 62 199 4.0 7.0 0.00 0.00 0.00 38 986.2
20260501155123 61 204 5.0 9.0 0.00 0.00 0.00 39 986.4
20260501154123 62 193 3.0 6.0 0.00 0.00 0.00 37 986.4
20260501153126 60 172 5.0 7.0 0.00 0.00 0.00 40 986.4
20260501152123 60 144 5.0 8.0 0.00 0.00 0.00 42 986.4